Tracking 25193 objects as of 17-Jan-2022
HD Live streaming from Space Station
objects crossing your sky now

AMC-9 (GE-12)

Track AMC-9 (GE-12) now!
AMC-9 (GE-12) is classified as:


NORAD ID: 27820
Int'l Code: 2003-024A
Perigee: 36,075.4 km
Apogee: 36,213.8 km
Inclination: 3.9 °
Period: 1,454.1 minutes
Semi major axis: 42515 km
RCS: 43.0775 m2 (large)
Launch date: June 6, 2003
Source: SOCIETE EUROPEENNE DES SATELLITES (SES)
Launch site: TYURATAM MISSILE AND SPACE COMPLEX (TTMTR)

Television programmers, government agencies and enterprise networks; 24 Ku-band; CONUS and Mexico.
aabbcc
Your satellite tracking list
Your tracking list is empty




NASA's NSSDC Master Catalog

Two Line Element Set (TLE):
1 27820U 03024A   22016.83945039 -.00000044  00000-0  00000-0 0  9999
2 27820   3.8696  82.4473 0016287 295.2214 237.6895  0.99033139 68023
Source of the keplerian elements: AFSPC